TimeEDT,TemperatureF,Dew PointF,Humidity,Sea Level PressureIn,VisibilityMPH,Wind Direction,Wind SpeedMPH,Gust SpeedMPH,PrecipitationIn,Events,Conditions,WindDirDegrees,DateUTC
12:15 AM,39.2,33.8,81,30.24,10.0,Calm,Calm,-,N/A,,Clear,0,2013-03-30 04:15:00
12:35 AM,41.0,33.8,76,30.24,10.0,SW,3.5,-,N/A,,Clear,220,2013-03-30 04:35:00
12:55 AM,39.2,33.8,81,30.24,10.0,SSW,3.5,-,N/A,,Clear,210,2013-03-30 04:55:00
1:15 AM,39.2,33.8,81,30.24,10.0,Calm,Calm,-,N/A,,Clear,0,2013-03-30 05:15:00
1:35 AM,39.2,33.8,81,30.23,10.0,Calm,Calm,-,N/A,,Scattered Clouds,0,2013-03-30 05:35:00
1:55 AM,39.2,33.8,81,30.23,10.0,Calm,Calm,-,N/A,,Mostly Cloudy,0,2013-03-30 05:55:00
2:15 AM,39.2,33.8,81,30.23,10.0,Calm,Calm,-,N/A,,Partly Cloudy,0,2013-03-30 06:15:00
2:35 AM,39.2,33.8,81,30.22,10.0,SW,4.6,-,N/A,,Partly Cloudy,220,2013-03-30 06:35:00
2:55 AM,39.2,35.6,87,30.22,10.0,SSW,3.5,-,N/A,,Mostly Cloudy,210,2013-03-30 06:55:00
3:15 AM,41.0,35.6,81,30.21,10.0,SW,4.6,-,N/A,,Overcast,220,2013-03-30 07:15:00
3:35 AM,42.8,37.4,81,30.21,10.0,SW,3.5,-,N/A,,Mostly Cloudy,220,2013-03-30 07:35:00
3:55 AM,42.8,37.4,81,30.20,10.0,Calm,Calm,-,N/A,,Overcast,0,2013-03-30 07:55:00
4:15 AM,42.8,37.4,81,30.20,10.0,SW,3.5,-,N/A,,Mostly Cloudy,230,2013-03-30 08:15:00
4:35 AM,42.8,37.4,81,30.20,10.0,Calm,Calm,-,N/A,,Partly Cloudy,0,2013-03-30 08:35:00
4:55 AM,41.0,37.4,87,30.20,10.0,Calm,Calm,-,N/A,,Partly Cloudy,0,2013-03-30 08:55:00
5:15 AM,41.0,37.4,87,30.20,10.0,Calm,Calm,-,N/A,,Partly Cloudy,0,2013-03-30 09:15:00
5:35 AM,41.0,37.4,87,30.20,10.0,Calm,Calm,-,N/A,,Partly Cloudy,0,2013-03-30 09:35:00
5:55 AM,39.2,37.4,93,30.21,10.0,Calm,Calm,-,N/A,,Scattered Clouds,0,2013-03-30 09:55:00
6:15 AM,41.0,37.4,87,30.21,10.0,Calm,Calm,-,N/A,,Mostly Cloudy,0,2013-03-30 10:15:00
6:35 AM,41.0,37.4,87,30.21,10.0,Calm,Calm,-,N/A,,Mostly Cloudy,0,2013-03-30 10:35:00
6:55 AM,41.0,37.4,87,30.22,10.0,WSW,3.5,-,N/A,,Mostly Cloudy,250,2013-03-30 10:55:00
7:15 AM,42.8,37.4,81,30.22,10.0,Calm,Calm,-,N/A,,Overcast,0,2013-03-30 11:15:00
7:35 AM,42.8,37.4,81,30.23,10.0,Calm,Calm,-,N/A,,Overcast,0,2013-03-30 11:35:00
7:55 AM,44.6,39.2,81,30.24,10.0,West,5.8,-,N/A,,Mostly Cloudy,260,2013-03-30 11:55:00
8:15 AM,46.4,39.2,76,30.25,10.0,WSW,6.9,-,N/A,,Mostly Cloudy,250,2013-03-30 12:15:00
8:35 AM,48.2,39.2,71,30.25,10.0,WSW,6.9,-,N/A,,Overcast,250,2013-03-30 12:35:00
8:55 AM,50.0,41.0,71,30.26,10.0,West,9.2,-,N/A,,Mostly Cloudy,260,2013-03-30 12:55:00
9:15 AM,51.8,42.8,71,30.26,10.0,West,9.2,-,N/A,,Mostly Cloudy,260,2013-03-30 13:15:00
9:35 AM,53.6,42.8,67,30.26,10.0,West,5.8,-,N/A,,Mostly Cloudy,260,2013-03-30 13:35:00
9:55 AM,51.8,42.8,71,30.26,10.0,West,6.9,-,N/A,,Overcast,260,2013-03-30 13:55:00
10:15 AM,53.6,42.8,67,30.26,10.0,West,4.6,-,N/A,,Overcast,260,2013-03-30 14:15:00
10:35 AM,53.6,42.8,67,30.26,10.0,WSW,6.9,-,N/A,,Overcast,250,2013-03-30 14:35:00
10:55 AM,55.4,44.6,67,30.25,10.0,WSW,8.1,-,N/A,,Overcast,250,2013-03-30 14:55:00
11:15 AM,57.2,44.6,63,30.25,10.0,WSW,8.1,-,N/A,,Overcast,240,2013-03-30 15:15:00
11:35 AM,57.2,44.6,63,30.24,10.0,West,8.1,-,N/A,,Overcast,280,2013-03-30 15:35:00
11:55 AM,57.2,42.8,59,30.24,10.0,West,3.5,-,N/A,,Overcast,270,2013-03-30 15:55:00
12:15 PM,57.2,42.8,59,30.24,10.0,West,5.8,-,N/A,,Overcast,260,2013-03-30 16:15:00
12:35 PM,57.2,42.8,59,30.23,10.0,WNW,6.9,-,N/A,,Overcast,290,2013-03-30 16:35:00
12:55 PM,57.2,42.8,59,30.22,10.0,Calm,Calm,-,N/A,,Overcast,0,2013-03-30 16:55:00
1:15 PM,57.2,41.0,55,30.21,10.0,Calm,Calm,-,N/A,,Overcast,0,2013-03-30 17:15:00
1:35 PM,59.0,42.8,55,30.20,10.0,Calm,Calm,-,N/A,,Overcast,0,2013-03-30 17:35:00
1:55 PM,59.0,41.0,51,30.19,10.0,Calm,Calm,-,N/A,,Overcast,0,2013-03-30 17:55:00
2:15 PM,60.8,41.0,48,30.18,10.0,Calm,Calm,-,N/A,,Overcast,0,2013-03-30 18:15:00
2:35 PM,60.8,39.2,45,30.18,10.0,NW,3.5,-,N/A,,Mostly Cloudy,320,2013-03-30 18:35:00
2:55 PM,60.8,39.2,45,30.17,10.0,Calm,Calm,-,N/A,,Mostly Cloudy,0,2013-03-30 18:55:00
3:15 PM,60.8,39.2,45,30.17,10.0,South,3.5,-,N/A,,Overcast,190,2013-03-30 19:15:00
3:35 PM,62.6,39.2,42,30.16,10.0,South,3.5,-,N/A,,Mostly Cloudy,190,2013-03-30 19:35:00
3:55 PM,62.6,39.2,42,30.15,10.0,SW,3.5,-,N/A,,Scattered Clouds,230,2013-03-30 19:55:00
4:15 PM,64.4,41.0,42,30.15,10.0,South,3.5,-,N/A,,Clear,190,2013-03-30 20:15:00
4:35 PM,66.2,39.2,37,30.14,10.0,South,4.6,-,N/A,,Clear,190,2013-03-30 20:35:00
4:55 PM,64.4,39.2,40,30.14,10.0,SSW,6.9,-,N/A,,Mostly Cloudy,200,2013-03-30 20:55:00
5:15 PM,64.4,39.2,40,30.14,10.0,SSW,8.1,-,N/A,,Scattered Clouds,210,2013-03-30 21:15:00
5:35 PM,64.4,39.2,40,30.14,10.0,South,9.2,-,N/A,,Mostly Cloudy,180,2013-03-30 21:35:00
5:55 PM,64.4,39.2,40,30.14,10.0,South,11.5,-,N/A,,Scattered Clouds,180,2013-03-30 21:55:00
6:15 PM,62.6,39.2,42,30.14,10.0,South,6.9,-,N/A,,Scattered Clouds,190,2013-03-30 22:15:00
6:35 PM,62.6,39.2,42,30.14,10.0,SSW,9.2,-,N/A,,Partly Cloudy,210,2013-03-30 22:35:00
6:55 PM,60.8,39.2,45,30.14,10.0,South,9.2,-,N/A,,Clear,190,2013-03-30 22:55:00
7:15 PM,57.2,39.2,51,30.15,10.0,South,9.2,-,N/A,,Clear,180,2013-03-30 23:15:00
7:35 PM,55.4,39.2,54,30.15,10.0,South,9.2,-,N/A,,Clear,190,2013-03-30 23:35:00
7:55 PM,55.4,39.2,54,30.15,10.0,South,9.2,-,N/A,,Clear,190,2013-03-30 23:55:00
8:15 PM,53.6,39.2,58,30.15,10.0,SSW,6.9,-,N/A,,Clear,200,2013-03-31 00:15:00
8:35 PM,51.8,39.2,62,30.16,10.0,SSW,4.6,-,N/A,,Clear,200,2013-03-31 00:35:00
8:55 PM,51.8,39.2,62,30.16,10.0,South,3.5,-,N/A,,Clear,180,2013-03-31 00:55:00
9:15 PM,50.0,39.2,66,30.16,10.0,South,4.6,-,N/A,,Clear,180,2013-03-31 01:15:00
9:35 PM,50.0,37.4,62,30.16,10.0,Calm,Calm,-,N/A,,Clear,0,2013-03-31 01:35:00
9:55 PM,46.4,37.4,71,30.17,10.0,Calm,Calm,-,N/A,,Clear,0,2013-03-31 01:55:00
10:15 PM,48.2,39.2,71,30.17,10.0,Calm,Calm,-,N/A,,Clear,0,2013-03-31 02:15:00
10:35 PM,44.6,37.4,76,30.16,10.0,Calm,Calm,-,N/A,,Clear,0,2013-03-31 02:35:00
10:55 PM,44.6,37.4,76,30.16,10.0,Calm,Calm,-,N/A,,Clear,0,2013-03-31 02:55:00
11:15 PM,44.6,39.2,81,30.16,10.0,Calm,Calm,-,N/A,,Clear,0,2013-03-31 03:15:00
11:35 PM,42.8,37.4,81,30.15,10.0,Calm,Calm,-,N/A,,Clear,0,2013-03-31 03:35:00
11:55 PM,42.8,37.4,81,30.15,10.0,Calm,Calm,-,N/A,,Clear,0,2013-03-31 03:55:00